Location: Colle Santa Colomba
(42.0333°N, 12.5667°E)
Time: 22:03:35
(UTC+00:00)

BREEZE-M R/B - Pass Details

Date: 25 October 2021
Orbit: 596 x 26570 km, 48.9° (Epoch: 05 December)

Event Time Altitude Azimuth Distance (km) Brightness Sun altitude
Rises 17:19:02 0° 294° (WNW) 3,177 7.3 -12.9°
Reaches altitude 10° 17:21:24 10° 302° (WNW) 1,986 6.0 -13.3°
Maximum altitude 17:24:48 43° 17° (NNE) 892 3.2 -14.0°
Enters shadow 17:27:14 22° 79° (E) 1,653 4.1 -14.4°
